GALAXY 13 (HORIZONS-1)

Last updated on Fri Oct 11 2024 00:02:38 GMT+0000 (Coordinated Universal Time)

1 27954U 03044A 24284.39146503 .00000138 00000+0 00000+0 0 9999 2 27954 0.0178 136.9938 0001032 213.1917 20.2323 1.00274610 40405
UTC large
Height (km)
Speed (km/s)
/
Latitude / Longitude
Inclination (degrees)
Orbital Period (minutes)
Azimuth
Elevation
Range (km)
Doppler Factor

Next 0 passes for location: London (51.5072 / 0.1276)

Sorry there are no passes over London.